Location: LC-39B
(28.6273°N, 80.6211°W)
Time: 15:56:15
(UTC+00:00)

ISS - Visible Passes

Search period start: 29 July 2015 00:00
Search period end: 08 August 2015 00:00
Orbit: 401 x 403 km, 51.6° (Epoch: 29 July)

Date Brightness Start Highest point End Pass type
(mag) Time Alt. Az. Time Alt. Az. Time Alt. Az.
30 Jul -3.2 01:32:52 10° SSW 01:35:59 49° SE 01:36:19 46° ESE visible
30 Jul -1.1 09:41:58 10° NNW 09:44:51 29° NE 09:47:46 10° ESE visible
31 Jul -2.0 00:40:42 10° S 00:43:08 20° SE 00:45:38 10° ENE visible
31 Jul -0.8 02:16:51 10° W 02:19:29 22° NW 02:22:06 10° NNE visible
31 Jul -0.1 08:49:47 10° N 08:51:44 15° NE 08:53:45 10° ENE visible
01 Aug -2.3 01:23:17 10° WSW 01:26:27 48° NW 01:29:36 10° NNE visible
01 Aug -3.4 09:32:08 10° NW 09:35:23 89° WSW 09:38:38 10° SE visible
02 Aug -1.8 08:42:28 36° NE 08:42:28 36° NE 08:45:28 10° ESE visible
02 Aug -1.3 10:17:20 10° WSW 10:18:38 12° SW 10:19:46 10° SSW visible
03 Aug -0.3 01:14:41 10° W 01:17:05 18° NW 01:19:25 10° N visible
